Location: Newark
(23.3970°S, 47.6010°W)
Time: 14:24:27
(UTC+00:00)

deb Explorer IX - Pass Details

Date: 23 February 2020
Orbit: 547 x 1100 km, 38.8° (Epoch: 29 March)

Event Time Altitude Azimuth Distance (km) Brightness Sun altitude
Rises 06:22:36 0° 234° (SW) 3,925 - -35.0°
Reaches altitude 10° 06:25:31 10° 229° (SW) 2,950 - -34.4°
Exits shadow 06:30:59 45° 194° (SSW) 1,414 ? -33.4°
Maximum altitude 06:32:38 54° 153° (SSE) 1,254 ? -33.0°
Drops below altitude 10° 06:39:04 10° 76° (ENE) 2,684 ? -31.8°
Sets 06:41:36 0° 71° (ENE) 3,547 ? -31.3°
